Time,TemperatureF,DewpointF,PressureIn,WindDirection,WindDirectionDegrees,WindSpeedMPH,WindSpeedGustMPH,Humidity,HourlyPrecipIn,Conditions,Clouds,dailyrainin,SoftwareType,DateUTC
2014-01-28 00:00:00,47.3,29.0,29.94,NW,308,5.0,8.0,49,0.00,,,0.00,WUHU216DAVISVP2,2014-01-28 07:00:00,
2014-01-28 00:05:00,47.3,29.0,29.94,NW,315,3.0,7.0,49,0.00,,,0.00,WUHU216DAVISVP2,2014-01-28 07:05:00,
2014-01-28 00:10:00,46.4,28.2,29.94,NNE,25,1.0,2.0,49,0.00,,,0.00,WUHU216DAVISVP2,2014-01-28 07:10:00,
2014-01-28 00:15:00,44.7,27.6,29.94,NE,54,2.0,3.0,51,0.00,,,0.00,WUHU216DAVISVP2,2014-01-28 07:15:00,
2014-01-28 00:20:00,44.1,28.5,29.94,ENE,66,2.0,4.0,54,0.00,,,0.00,WUHU216DAVISVP2,2014-01-28 07:20:00,
2014-01-28 00:25:00,44.6,28.0,29.94,NE,42,1.0,2.0,52,0.00,,,0.00,WUHU216DAVISVP2,2014-01-28 07:25:00,
2014-01-28 00:30:00,44.0,27.5,29.94,North,357,1.0,2.0,52,0.00,,,0.00,WUHU216DAVISVP2,2014-01-28 07:30:00,
2014-01-28 00:35:00,43.3,27.3,29.94,North,355,1.0,1.0,53,0.00,,,0.00,WUHU216DAVISVP2,2014-01-28 07:35:00,
2014-01-28 00:40:00,42.8,26.8,29.94,North,0,0.0,0.0,53,0.00,,,0.00,WUHU216DAVISVP2,2014-01-28 07:40:00,
2014-01-28 00:45:00,42.4,27.4,29.94,North,0,0.0,0.0,55,0.00,,,0.00,WUHU216DAVISVP2,2014-01-28 07:45:00,
2014-01-28 00:51:00,41.6,26.6,29.94,North,355,1.0,2.0,55,0.00,,,0.00,WUHU216DAVISVP2,2014-01-28 07:51:00,
2014-01-28 00:56:00,40.9,26.9,29.94,North,355,1.0,1.0,57,0.00,,,0.00,WUHU216DAVISVP2,2014-01-28 07:56:00,
2014-01-28 01:01:00,40.4,26.8,29.94,North,0,0.0,0.0,58,0.00,,,0.00,WUHU216DAVISVP2,2014-01-28 08:01:00,
2014-01-28 01:06:00,40.0,26.0,29.94,North,355,1.0,1.0,57,0.00,,,0.00,WUHU216DAVISVP2,2014-01-28 08:06:00,
2014-01-28 01:11:00,39.3,25.8,29.94,North,355,1.0,2.0,58,0.00,,,0.00,WUHU216DAVISVP2,2014-01-28 08:11:00,
2014-01-28 01:16:00,38.8,25.7,29.94,NNW,348,1.0,2.0,59,0.00,,,0.00,WUHU216DAVISVP2,2014-01-28 08:16:00,
2014-01-28 01:21:00,38.3,25.7,29.94,NNW,348,1.0,2.0,60,0.00,,,0.00,WUHU216DAVISVP2,2014-01-28 08:21:00,
2014-01-28 01:26:00,38.1,25.5,29.94,NNW,344,1.0,3.0,60,0.00,,,0.00,WUHU216DAVISVP2,2014-01-28 08:26:00,
2014-01-28 01:31:00,38.3,25.3,29.94,NNW,334,2.0,3.0,59,0.00,,,0.00,WUHU216DAVISVP2,2014-01-28 08:31:00,
2014-01-28 01:36:00,38.8,25.7,29.94,NNW,333,2.0,3.0,59,0.00,,,0.00,WUHU216DAVISVP2,2014-01-28 08:36:00,
2014-01-28 01:41:00,39.6,25.6,29.94,North,349,2.0,4.0,57,0.00,,,0.00,WUHU216DAVISVP2,2014-01-28 08:41:00,
2014-01-28 01:46:00,39.0,24.2,29.94,North,355,2.0,3.0,55,0.00,,,0.00,WUHU216DAVISVP2,2014-01-28 08:46:00,
2014-01-28 01:52:00,37.9,24.5,29.94,NNW,341,2.0,3.0,58,0.00,,,0.00,WUHU216DAVISVP2,2014-01-28 08:52:00,
2014-01-28 01:57:00,37.8,24.8,29.94,NW,325,1.0,2.0,59,0.00,,,0.00,WUHU216DAVISVP2,2014-01-28 08:57:00,
2014-01-28 02:02:00,38.1,24.7,29.94,NW,319,1.0,1.0,58,0.00,,,0.00,WUHU216DAVISVP2,2014-01-28 09:02:00,
2014-01-28 02:07:00,38.7,24.8,29.94,NW,321,2.0,3.0,57,0.00,,,0.00,WUHU216DAVISVP2,2014-01-28 09:07:00,
2014-01-28 02:12:00,39.0,24.7,29.94,NW,311,2.0,7.0,56,0.00,,,0.00,WUHU216DAVISVP2,2014-01-28 09:12:00,
2014-01-28 02:17:00,39.1,24.3,29.94,NW,322,2.0,4.0,55,0.00,,,0.00,WUHU216DAVISVP2,2014-01-28 09:17:00,
2014-01-28 02:22:00,40.7,24.9,29.94,NW,307,3.0,7.0,53,0.00,,,0.00,WUHU216DAVISVP2,2014-01-28 09:22:00,
2014-01-28 02:27:00,41.2,24.9,29.94,WNW,303,5.0,9.0,52,0.00,,,0.00,WUHU216DAVISVP2,2014-01-28 09:27:00,
2014-01-28 02:32:00,43.5,25.0,29.94,WNW,302,6.0,11.0,48,0.00,,,0.00,WUHU216DAVISVP2,2014-01-28 09:32:00,
2014-01-28 02:37:00,43.6,24.6,29.94,NW,322,4.0,8.0,47,0.00,,,0.00,WUHU216DAVISVP2,2014-01-28 09:37:00,
2014-01-28 02:42:00,42.7,24.3,29.94,NW,317,4.0,8.0,48,0.00,,,0.00,WUHU216DAVISVP2,2014-01-28 09:42:00,
2014-01-28 02:47:00,43.4,24.9,29.94,NW,311,5.0,9.0,48,0.00,,,0.00,WUHU216DAVISVP2,2014-01-28 09:47:00,
2014-01-28 02:53:00,43.7,24.7,29.94,NW,315,4.0,9.0,47,0.00,,,0.00,WUHU216DAVISVP2,2014-01-28 09:53:00,
2014-01-28 02:58:00,43.5,25.0,29.94,NW,315,3.0,5.0,48,0.00,,,0.00,WUHU216DAVISVP2,2014-01-28 09:58:00,
2014-01-28 03:03:00,43.2,24.7,29.94,NW,314,3.0,7.0,48,0.00,,,0.00,WUHU216DAVISVP2,2014-01-28 10:03:00,
2014-01-28 03:08:00,43.0,24.6,29.94,NW,317,4.0,6.0,48,0.00,,,0.00,WUHU216DAVISVP2,2014-01-28 10:08:00,
2014-01-28 03:13:00,42.9,24.5,29.95,NW,321,3.0,6.0,48,0.00,,,0.00,WUHU216DAVISVP2,2014-01-28 10:13:00,
2014-01-28 03:18:00,42.9,24.5,29.95,NW,315,3.0,7.0,48,0.00,,,0.00,WUHU216DAVISVP2,2014-01-28 10:18:00,
2014-01-28 03:23:00,43.6,24.1,29.95,NW,311,5.0,9.0,46,0.00,,,0.00,WUHU216DAVISVP2,2014-01-28 10:23:00,
2014-01-28 03:28:00,44.0,24.4,29.95,NW,311,3.0,6.0,46,0.00,,,0.00,WUHU216DAVISVP2,2014-01-28 10:28:00,
2014-01-28 03:33:00,42.9,23.4,29.95,NW,312,2.0,6.0,46,0.00,,,0.00,WUHU216DAVISVP2,2014-01-28 10:33:00,
2014-01-28 03:38:00,40.6,22.9,29.95,NW,316,2.0,3.0,49,0.00,,,0.00,WUHU216DAVISVP2,2014-01-28 10:38:00,
2014-01-28 03:43:00,39.1,22.9,29.95,North,0,0.0,0.0,52,0.00,,,0.00,WUHU216DAVISVP2,2014-01-28 10:43:00,
2014-01-28 03:48:00,38.0,22.8,29.95,North,0,0.0,0.0,54,0.00,,,0.00,WUHU216DAVISVP2,2014-01-28 10:48:00,
2014-01-28 03:53:00,37.0,22.8,29.95,North,0,0.0,0.0,56,0.00,,,0.00,WUHU216DAVISVP2,2014-01-28 10:53:00,
2014-01-28 03:59:00,36.3,22.5,29.95,North,0,0.0,0.0,57,0.00,,,0.00,WUHU216DAVISVP2,2014-01-28 10:59:00,
2014-01-28 04:04:00,35.4,22.5,29.95,NNW,334,3.0,3.0,59,0.00,,,0.00,WUHU216DAVISVP2,2014-01-28 11:04:00,
2014-01-28 04:09:00,34.9,22.9,29.95,North,352,3.0,5.0,61,0.00,,,0.00,WUHU216DAVISVP2,2014-01-28 11:09:00,
2014-01-28 04:14:00,34.6,22.6,29.95,North,354,2.0,3.0,61,0.00,,,0.00,WUHU216DAVISVP2,2014-01-28 11:14:00,
2014-01-28 04:19:00,34.3,22.7,29.95,North,351,1.0,2.0,62,0.00,,,0.00,WUHU216DAVISVP2,2014-01-28 11:19:00,
2014-01-28 04:24:00,35.7,24.4,29.95,NW,308,3.0,7.0,63,0.00,,,0.00,WUHU216DAVISVP2,2014-01-28 11:24:00,
2014-01-28 04:29:00,40.7,25.3,29.95,NW,304,5.0,9.0,54,0.00,,,0.00,WUHU216DAVISVP2,2014-01-28 11:29:00,
2014-01-28 04:34:00,43.5,25.5,29.95,WNW,303,5.0,9.0,49,0.00,,,0.00,WUHU216DAVISVP2,2014-01-28 11:34:00,
2014-01-28 04:39:00,44.6,25.5,29.95,NW,304,5.0,9.0,47,0.00,,,0.00,WUHU216DAVISVP2,2014-01-28 11:39:00,
2014-01-28 04:44:00,44.9,25.3,29.95,NW,307,4.0,8.0,46,0.00,,,0.00,WUHU216DAVISVP2,2014-01-28 11:44:00,
2014-01-28 04:49:00,44.9,25.3,29.95,NW,308,4.0,6.0,46,0.00,,,0.00,WUHU216DAVISVP2,2014-01-28 11:49:00,
2014-01-28 04:54:00,44.9,24.7,29.95,NW,305,5.0,8.0,45,0.00,,,0.00,WUHU216DAVISVP2,2014-01-28 11:54:00,
2014-01-28 04:59:00,44.5,24.3,29.95,NW,315,3.0,7.0,45,0.00,,,0.00,WUHU216DAVISVP2,2014-01-28 11:59:00,
2014-01-28 05:05:00,43.2,24.2,29.95,NNW,330,2.0,4.0,47,0.00,,,0.00,WUHU216DAVISVP2,2014-01-28 12:05:00,
2014-01-28 05:10:00,41.7,23.9,29.96,NNW,336,2.0,3.0,49,0.00,,,0.00,WUHU216DAVISVP2,2014-01-28 12:10:00,
2014-01-28 05:15:00,40.5,23.3,29.96,NNW,341,2.0,3.0,50,0.00,,,0.00,WUHU216DAVISVP2,2014-01-28 12:15:00,
2014-01-28 05:20:00,39.6,23.4,29.96,North,355,2.0,4.0,52,0.00,,,0.00,WUHU216DAVISVP2,2014-01-28 12:20:00,
2014-01-28 05:25:00,38.6,22.9,29.96,NNW,339,2.0,3.0,53,0.00,,,0.00,WUHU216DAVISVP2,2014-01-28 12:25:00,
2014-01-28 05:30:00,37.5,22.4,29.96,NW,325,3.0,5.0,54,0.00,,,0.00,WUHU216DAVISVP2,2014-01-28 12:30:00,
2014-01-28 05:35:00,36.6,22.4,29.96,NNW,332,2.0,4.0,56,0.00,,,0.00,WUHU216DAVISVP2,2014-01-28 12:35:00,
2014-01-28 05:40:00,35.9,22.2,29.96,NNW,335,2.0,3.0,57,0.00,,,0.00,WUHU216DAVISVP2,2014-01-28 12:40:00,
2014-01-28 05:45:00,35.6,22.3,29.96,NNW,337,2.0,3.0,58,0.00,,,0.00,WUHU216DAVISVP2,2014-01-28 12:45:00,
2014-01-28 05:50:00,35.2,21.9,29.97,NNW,345,3.0,4.0,58,0.00,,,0.00,WUHU216DAVISVP2,2014-01-28 12:50:00,
2014-01-28 05:56:00,35.0,22.2,29.97,NNW,343,3.0,5.0,59,0.00,,,0.00,WUHU216DAVISVP2,2014-01-28 12:56:00,
2014-01-28 06:01:00,35.8,22.9,29.97,NNW,341,3.0,5.0,59,0.00,,,0.00,WUHU216DAVISVP2,2014-01-28 13:01:00,
2014-01-28 06:06:00,37.2,23.4,29.98,NNW,328,4.0,6.0,57,0.00,,,0.00,WUHU216DAVISVP2,2014-01-28 13:06:00,
2014-01-28 06:11:00,38.8,23.6,29.98,NW,311,3.0,5.0,54,0.00,,,0.00,WUHU216DAVISVP2,2014-01-28 13:11:00,
2014-01-28 06:16:00,40.1,23.9,29.98,NW,306,4.0,6.0,52,0.00,,,0.00,WUHU216DAVISVP2,2014-01-28 13:16:00,
2014-01-28 06:21:00,41.1,23.8,29.99,WNW,302,3.0,5.0,50,0.00,,,0.00,WUHU216DAVISVP2,2014-01-28 13:21:00,
2014-01-28 06:26:00,41.9,23.6,29.99,WNW,296,5.0,7.0,48,0.00,,,0.00,WUHU216DAVISVP2,2014-01-28 13:26:00,
2014-01-28 06:31:00,42.9,24.0,29.99,WNW,293,5.0,8.0,47,0.00,,,0.00,WUHU216DAVISVP2,2014-01-28 13:31:00,
2014-01-28 06:36:00,43.1,23.6,29.99,WNW,303,4.0,7.0,46,0.00,,,0.00,WUHU216DAVISVP2,2014-01-28 13:36:00,
2014-01-28 06:41:00,43.1,23.1,30.00,NW,311,4.0,6.0,45,0.00,,,0.00,WUHU216DAVISVP2,2014-01-28 13:41:00,
2014-01-28 06:46:00,42.4,22.4,30.00,NW,323,3.0,6.0,45,0.00,,,0.00,WUHU216DAVISVP2,2014-01-28 13:46:00,
2014-01-28 06:51:00,41.3,22.5,30.00,NW,323,2.0,4.0,47,0.00,,,0.00,WUHU216DAVISVP2,2014-01-28 13:51:00,
2014-01-28 06:57:00,41.5,22.7,30.00,NW,306,3.0,5.0,47,0.00,,,0.00,WUHU216DAVISVP2,2014-01-28 13:57:00,
2014-01-28 07:02:00,40.8,22.0,30.00,NNW,334,2.0,4.0,47,0.00,,,0.00,WUHU216DAVISVP2,2014-01-28 14:02:00,
2014-01-28 07:07:00,38.4,21.3,30.00,NNW,331,2.0,4.0,50,0.00,,,0.00,WUHU216DAVISVP2,2014-01-28 14:07:00,
2014-01-28 07:12:00,37.7,22.1,30.01,NW,306,2.0,4.0,53,0.00,,,0.00,WUHU216DAVISVP2,2014-01-28 14:12:00,
2014-01-28 07:17:00,36.8,21.2,30.01,NW,322,2.0,3.0,53,0.00,,,0.00,WUHU216DAVISVP2,2014-01-28 14:17:00,
2014-01-28 07:22:00,35.7,21.6,30.02,NW,315,2.0,3.0,56,0.00,,,0.00,WUHU216DAVISVP2,2014-01-28 14:22:00,
2014-01-28 07:27:00,35.2,21.9,30.02,NW,322,2.0,4.0,58,0.00,,,0.00,WUHU216DAVISVP2,2014-01-28 14:27:00,
2014-01-28 07:32:00,37.7,23.4,30.02,NW,304,2.0,3.0,56,0.00,,,0.00,WUHU216DAVISVP2,2014-01-28 14:32:00,
2014-01-28 07:37:00,38.9,23.7,30.02,NW,311,2.0,3.0,54,0.00,,,0.00,WUHU216DAVISVP2,2014-01-28 14:37:00,
2014-01-28 07:42:00,41.9,24.6,30.02,NW,304,4.0,7.0,50,0.00,,,0.00,WUHU216DAVISVP2,2014-01-28 14:42:00,
2014-01-28 07:47:00,43.9,24.3,30.02,NW,317,3.0,7.0,46,0.00,,,0.00,WUHU216DAVISVP2,2014-01-28 14:47:00,
2014-01-28 07:52:00,43.8,24.2,30.02,NNW,330,3.0,6.0,46,0.00,,,0.00,WUHU216DAVISVP2,2014-01-28 14:52:00,
2014-01-28 07:58:00,44.1,24.5,30.02,NNW,330,3.0,6.0,46,0.00,,,0.00,WUHU216DAVISVP2,2014-01-28 14:58:00,
2014-01-28 08:03:00,45.1,24.3,30.02,NW,325,4.0,7.0,44,0.00,,,0.00,WUHU216DAVISVP2,2014-01-28 15:03:00,
2014-01-28 08:08:00,46.0,24.6,30.02,NW,320,3.0,6.0,43,0.00,,,0.00,WUHU216DAVISVP2,2014-01-28 15:08:00,
2014-01-28 08:13:00,46.7,24.7,30.03,NNW,329,3.0,6.0,42,0.00,,,0.00,WUHU216DAVISVP2,2014-01-28 15:13:00,
2014-01-28 08:18:00,47.4,24.7,30.02,NNW,332,3.0,5.0,41,0.00,,,0.00,WUHU216DAVISVP2,2014-01-28 15:18:00,
2014-01-28 08:23:00,47.8,24.4,30.02,NNW,335,3.0,5.0,40,0.00,,,0.00,WUHU216DAVISVP2,2014-01-28 15:23:00,
2014-01-28 08:28:00,48.5,24.5,30.02,NW,322,1.0,3.0,39,0.00,,,0.00,WUHU216DAVISVP2,2014-01-28 15:28:00,
2014-01-28 08:33:00,49.2,24.5,30.03,NNW,345,2.0,3.0,38,0.00,,,0.00,WUHU216DAVISVP2,2014-01-28 15:33:00,
2014-01-28 08:38:00,49.5,24.1,30.03,North,9,1.0,2.0,37,0.00,,,0.00,WUHU216DAVISVP2,2014-01-28 15:38:00,
2014-01-28 08:43:00,49.8,24.3,30.03,North,8,1.0,3.0,37,0.00,,,0.00,WUHU216DAVISVP2,2014-01-28 15:43:00,
2014-01-28 08:48:00,50.3,24.8,30.03,NNW,337,2.0,3.0,37,0.00,,,0.00,WUHU216DAVISVP2,2014-01-28 15:48:00,
2014-01-28 08:53:00,50.4,24.9,30.04,North,349,2.0,4.0,37,0.00,,,0.00,WUHU216DAVISVP2,2014-01-28 15:53:00,
2014-01-28 08:58:00,50.5,24.3,30.04,NNW,340,2.0,4.0,36,0.00,,,0.00,WUHU216DAVISVP2,2014-01-28 15:58:00,
2014-01-28 09:04:00,50.7,24.5,30.04,NNW,333,2.0,5.0,36,0.00,,,0.00,WUHU216DAVISVP2,2014-01-28 16:04:00,
2014-01-28 09:09:00,50.8,23.9,30.04,North,355,2.0,3.0,35,0.00,,,0.00,WUHU216DAVISVP2,2014-01-28 16:09:00,
2014-01-28 09:14:00,51.1,24.8,30.04,NNW,340,1.0,1.0,36,0.00,,,0.00,WUHU216DAVISVP2,2014-01-28 16:14:00,
2014-01-28 09:19:00,51.9,24.9,30.04,NNE,13,1.0,2.0,35,0.00,,,0.00,WUHU216DAVISVP2,2014-01-28 16:19:00,
2014-01-28 09:24:00,52.1,25.0,30.05,NNE,25,1.0,1.0,35,0.00,,,0.00,WUHU216DAVISVP2,2014-01-28 16:24:00,
2014-01-28 09:29:00,52.1,25.0,30.05,South,185,2.0,3.0,35,0.00,,,0.00,WUHU216DAVISVP2,2014-01-28 16:29:00,
2014-01-28 09:34:00,52.1,25.0,30.05,South,191,2.0,4.0,35,0.00,,,0.00,WUHU216DAVISVP2,2014-01-28 16:34:00,
2014-01-28 09:39:00,52.2,24.4,30.05,South,184,2.0,3.0,34,0.00,,,0.00,WUHU216DAVISVP2,2014-01-28 16:39:00,
2014-01-28 09:44:00,52.8,25.0,30.05,South,169,2.0,4.0,34,0.00,,,0.00,WUHU216DAVISVP2,2014-01-28 16:44:00,
2014-01-28 09:49:00,53.0,25.1,30.05,SSW,199,2.0,4.0,34,0.00,,,0.00,WUHU216DAVISVP2,2014-01-28 16:49:00,
2014-01-28 09:54:00,53.1,24.5,30.05,ESE,118,3.0,5.0,33,0.00,,,0.00,WUHU216DAVISVP2,2014-01-28 16:54:00,
2014-01-28 09:59:00,53.1,24.5,30.05,SSE,153,2.0,4.0,33,0.00,,,0.00,WUHU216DAVISVP2,2014-01-28 16:59:00,
2014-01-28 10:04:00,53.6,24.2,30.05,SSE,164,2.0,4.0,32,0.00,,,0.00,WUHU216DAVISVP2,2014-01-28 17:04:00,
2014-01-28 10:10:00,54.0,23.8,30.04,SSW,193,2.0,4.0,31,0.00,,,0.00,WUHU216DAVISVP2,2014-01-28 17:10:00,
2014-01-28 10:15:00,54.6,24.3,30.04,SSE,159,3.0,6.0,31,0.00,,,0.00,WUHU216DAVISVP2,2014-01-28 17:15:00,
2014-01-28 10:20:00,54.6,23.6,30.04,South,181,3.0,6.0,30,0.00,,,0.00,WUHU216DAVISVP2,2014-01-28 17:20:00,
2014-01-28 10:25:00,54.9,24.6,30.04,SSE,167,2.0,5.0,31,0.00,,,0.00,WUHU216DAVISVP2,2014-01-28 17:25:00,
2014-01-28 10:30:00,55.0,23.9,30.04,South,169,3.0,6.0,30,0.00,,,0.00,WUHU216DAVISVP2,2014-01-28 17:30:00,
2014-01-28 10:35:00,55.1,24.0,30.05,South,181,2.0,4.0,30,0.00,,,0.00,WUHU216DAVISVP2,2014-01-28 17:35:00,
2014-01-28 10:40:00,55.7,23.7,30.04,SSW,201,2.0,5.0,29,0.00,,,0.00,WUHU216DAVISVP2,2014-01-28 17:40:00,
2014-01-28 10:45:00,56.1,23.2,30.04,SSW,213,3.0,6.0,28,0.00,,,0.00,WUHU216DAVISVP2,2014-01-28 17:45:00,
2014-01-28 10:50:00,56.1,23.2,30.04,South,190,3.0,6.0,28,0.00,,,0.00,WUHU216DAVISVP2,2014-01-28 17:50:00,
2014-01-28 10:56:00,56.2,23.3,30.04,South,174,3.0,5.0,28,0.00,,,0.00,WUHU216DAVISVP2,2014-01-28 17:56:00,
2014-01-28 11:01:00,56.4,22.6,30.04,South,174,3.0,5.0,27,0.00,,,0.00,WUHU216DAVISVP2,2014-01-28 18:01:00,
2014-01-28 11:06:00,56.5,23.6,30.04,SSW,192,3.0,7.0,28,0.00,,,0.00,WUHU216DAVISVP2,2014-01-28 18:06:00,
2014-01-28 11:11:00,57.0,23.1,30.03,South,170,3.0,7.0,27,0.00,,,0.00,WUHU216DAVISVP2,2014-01-28 18:11:00,
2014-01-28 11:16:00,57.8,23.0,30.03,SSE,149,3.0,6.0,26,0.00,,,0.00,WUHU216DAVISVP2,2014-01-28 18:16:00,
2014-01-28 11:21:00,58.1,19.3,30.03,East,96,3.0,11.0,22,0.00,,,0.00,WUHU216DAVISVP2,2014-01-28 18:21:00,
2014-01-28 11:26:00,58.8,17.7,30.04,NNE,29,5.0,8.0,20,0.00,,,0.00,WUHU216DAVISVP2,2014-01-28 18:26:00,
2014-01-28 11:31:00,58.6,18.7,30.04,NE,51,6.0,14.0,21,0.00,,,0.00,WUHU216DAVISVP2,2014-01-28 18:31:00,
2014-01-28 11:36:00,59.4,19.4,30.03,North,351,3.0,8.0,21,0.00,,,0.00,WUHU216DAVISVP2,2014-01-28 18:36:00,
2014-01-28 11:41:00,59.5,17.1,30.02,NNE,27,5.0,10.0,19,0.00,,,0.00,WUHU216DAVISVP2,2014-01-28 18:41:00,
2014-01-28 11:46:00,59.0,16.7,30.01,NE,49,4.0,7.0,19,0.00,,,0.00,WUHU216DAVISVP2,2014-01-28 18:46:00,
2014-01-28 11:52:00,58.7,16.5,30.02,NE,43,4.0,8.0,19,0.00,,,0.00,WUHU216DAVISVP2,2014-01-28 18:52:00,
2014-01-28 11:57:00,58.8,15.3,30.02,NE,39,4.0,7.0,18,0.00,,,0.00,WUHU216DAVISVP2,2014-01-28 18:57:00,
2014-01-28 12:02:00,59.0,16.7,30.02,ENE,61,3.0,9.0,19,0.00,,,0.00,WUHU216DAVISVP2,2014-01-28 19:02:00,
2014-01-28 12:07:00,59.0,15.5,30.02,NE,40,4.0,8.0,18,0.00,,,0.00,WUHU216DAVISVP2,2014-01-28 19:07:00,
2014-01-28 12:12:00,59.1,16.8,30.02,ENE,61,3.0,8.0,19,0.00,,,0.00,WUHU216DAVISVP2,2014-01-28 19:12:00,
2014-01-28 12:17:00,59.5,15.9,30.01,NE,38,3.0,7.0,18,0.00,,,0.00,WUHU216DAVISVP2,2014-01-28 19:17:00,
2014-01-28 12:22:00,59.5,15.9,30.01,NE,38,2.0,4.0,18,0.00,,,0.00,WUHU216DAVISVP2,2014-01-28 19:22:00,
2014-01-28 12:27:00,60.1,17.6,30.00,NNE,23,2.0,7.0,19,0.00,,,0.00,WUHU216DAVISVP2,2014-01-28 19:27:00,
2014-01-28 12:32:00,60.1,17.6,30.00,East,90,3.0,8.0,19,0.00,,,0.00,WUHU216DAVISVP2,2014-01-28 19:32:00,
2014-01-28 12:37:00,60.3,16.5,29.99,ENE,61,5.0,10.0,18,0.00,,,0.00,WUHU216DAVISVP2,2014-01-28 19:37:00,
2014-01-28 12:43:00,60.9,15.7,29.99,NNW,328,3.0,7.0,17,0.00,,,0.00,WUHU216DAVISVP2,2014-01-28 19:43:00,
2014-01-28 12:48:00,60.9,15.7,29.99,West,279,3.0,5.0,17,0.00,,,0.00,WUHU216DAVISVP2,2014-01-28 19:48:00,
2014-01-28 12:53:00,61.3,16.0,29.99,NW,315,2.0,5.0,17,0.00,,,0.00,WUHU216DAVISVP2,2014-01-28 19:53:00,
2014-01-28 12:58:00,61.3,14.6,29.98,NW,306,2.0,3.0,16,0.00,,,0.00,WUHU216DAVISVP2,2014-01-28 19:58:00,
2014-01-28 13:03:00,61.9,15.1,29.98,West,274,3.0,7.0,16,0.00,,,0.00,WUHU216DAVISVP2,2014-01-28 20:03:00,
2014-01-28 13:08:00,62.0,15.2,29.98,West,275,3.0,7.0,16,0.00,,,0.00,WUHU216DAVISVP2,2014-01-28 20:08:00,
2014-01-28 13:13:00,62.1,16.7,29.98,ESE,104,2.0,6.0,17,0.00,,,0.00,WUHU216DAVISVP2,2014-01-28 20:13:00,
2014-01-28 13:18:00,62.0,16.6,29.98,East,90,3.0,7.0,17,0.00,,,0.00,WUHU216DAVISVP2,2014-01-28 20:18:00,
2014-01-28 13:23:00,62.1,16.7,29.98,ENE,61,3.0,7.0,17,0.00,,,0.00,WUHU216DAVISVP2,2014-01-28 20:23:00,
2014-01-28 13:28:00,62.2,16.8,29.98,SW,221,5.0,11.0,17,0.00,,,0.00,WUHU216DAVISVP2,2014-01-28 20:28:00,
2014-01-28 13:33:00,62.7,18.5,29.97,SSW,213,4.0,7.0,18,0.00,,,0.00,WUHU216DAVISVP2,2014-01-28 20:33:00,
2014-01-28 13:38:00,62.7,18.5,29.97,ESE,104,3.0,7.0,18,0.00,,,0.00,WUHU216DAVISVP2,2014-01-28 20:38:00,
2014-01-28 13:44:00,63.1,18.8,29.97,WNW,284,3.0,7.0,18,0.00,,,0.00,WUHU216DAVISVP2,2014-01-28 20:44:00,
2014-01-28 13:49:00,63.6,19.3,29.97,NW,307,3.0,8.0,18,0.00,,,0.00,WUHU216DAVISVP2,2014-01-28 20:49:00,
2014-01-28 13:54:00,63.7,19.3,29.97,North,350,2.0,7.0,18,0.00,,,0.00,WUHU216DAVISVP2,2014-01-28 20:54:00,
2014-01-28 13:59:00,63.4,20.4,29.97,West,266,4.0,8.0,19,0.00,,,0.00,WUHU216DAVISVP2,2014-01-28 20:59:00,
2014-01-28 14:04:00,63.4,19.1,29.97,WNW,303,5.0,10.0,18,0.00,,,0.00,WUHU216DAVISVP2,2014-01-28 21:04:00,
2014-01-28 14:09:00,63.4,19.1,29.96,WNW,291,3.0,8.0,18,0.00,,,0.00,WUHU216DAVISVP2,2014-01-28 21:09:00,
2014-01-28 14:14:00,63.0,18.8,29.96,West,272,6.0,11.0,18,0.00,,,0.00,WUHU216DAVISVP2,2014-01-28 21:14:00,
2014-01-28 14:19:00,62.5,18.4,29.96,SW,227,4.0,8.0,18,0.00,,,0.00,WUHU216DAVISVP2,2014-01-28 21:19:00,
2014-01-28 14:24:00,62.6,19.7,29.96,SSW,213,4.0,7.0,19,0.00,,,0.00,WUHU216DAVISVP2,2014-01-28 21:24:00,
2014-01-28 14:29:00,62.9,18.7,29.96,WSW,247,6.0,11.0,18,0.00,,,0.00,WUHU216DAVISVP2,2014-01-28 21:29:00,
2014-01-28 14:34:00,63.0,20.0,29.95,West,262,5.0,14.0,19,0.00,,,0.00,WUHU216DAVISVP2,2014-01-28 21:34:00,
2014-01-28 14:39:00,63.1,20.1,29.96,West,277,6.0,11.0,19,0.00,,,0.00,WUHU216DAVISVP2,2014-01-28 21:39:00,
2014-01-28 14:45:00,63.1,20.1,29.96,West,271,5.0,10.0,19,0.00,,,0.00,WUHU216DAVISVP2,2014-01-28 21:45:00,
2014-01-28 14:50:00,63.1,20.1,29.96,West,262,4.0,9.0,19,0.00,,,0.00,WUHU216DAVISVP2,2014-01-28 21:50:00,
2014-01-28 14:55:00,63.1,18.8,29.96,SW,214,2.0,5.0,18,0.00,,,0.00,WUHU216DAVISVP2,2014-01-28 21:55:00,
2014-01-28 15:00:00,63.1,18.8,29.96,South,190,4.0,9.0,18,0.00,,,0.00,WUHU216DAVISVP2,2014-01-28 22:00:00,
2014-01-28 15:05:00,63.7,19.3,29.96,West,264,4.0,8.0,18,0.00,,,0.00,WUHU216DAVISVP2,2014-01-28 22:05:00,
2014-01-28 15:10:00,63.4,19.1,29.95,NW,312,4.0,10.0,18,0.00,,,0.00,WUHU216DAVISVP2,2014-01-28 22:10:00,
2014-01-28 15:15:00,63.8,19.4,29.95,NW,311,2.0,4.0,18,0.00,,,0.00,WUHU216DAVISVP2,2014-01-28 22:15:00,
2014-01-28 15:20:00,64.2,19.7,29.95,NW,321,4.0,7.0,18,0.00,,,0.00,WUHU216DAVISVP2,2014-01-28 22:20:00,
2014-01-28 15:25:00,64.1,19.7,29.95,NW,325,4.0,9.0,18,0.00,,,0.00,WUHU216DAVISVP2,2014-01-28 22:25:00,
2014-01-28 15:30:00,64.1,19.7,29.95,NW,310,3.0,8.0,18,0.00,,,0.00,WUHU216DAVISVP2,2014-01-28 22:30:00,
2014-01-28 15:36:00,63.6,19.3,29.95,West,263,4.0,8.0,18,0.00,,,0.00,WUHU216DAVISVP2,2014-01-28 22:36:00,
2014-01-28 15:41:00,63.5,19.2,29.95,NNW,331,4.0,7.0,18,0.00,,,0.00,WUHU216DAVISVP2,2014-01-28 22:41:00,
2014-01-28 15:46:00,63.4,19.1,29.95,WNW,301,3.0,7.0,18,0.00,,,0.00,WUHU216DAVISVP2,2014-01-28 22:46:00,
2014-01-28 15:51:00,63.8,19.4,29.95,North,0,0.0,0.0,18,0.00,,,0.00,WUHU216DAVISVP2,2014-01-28 22:51:00,
2014-01-28 15:56:00,64.4,19.9,29.95,SSE,156,2.0,3.0,18,0.00,,,0.00,WUHU216DAVISVP2,2014-01-28 22:56:00,
2014-01-28 16:01:00,64.9,19.0,29.95,WNW,289,2.0,3.0,17,0.00,,,0.00,WUHU216DAVISVP2,2014-01-28 23:01:00,
2014-01-28 16:06:00,64.4,18.6,29.95,NNW,327,3.0,5.0,17,0.00,,,0.00,WUHU216DAVISVP2,2014-01-28 23:06:00,
2014-01-28 16:11:00,63.9,16.8,29.95,WNW,287,4.0,9.0,16,0.00,,,0.00,WUHU216DAVISVP2,2014-01-28 23:11:00,
2014-01-28 16:16:00,63.2,17.6,29.94,WNW,282,4.0,6.0,17,0.00,,,0.00,WUHU216DAVISVP2,2014-01-28 23:16:00,
2014-01-28 16:21:00,63.1,17.5,29.95,WNW,290,3.0,6.0,17,0.00,,,0.00,WUHU216DAVISVP2,2014-01-28 23:21:00,
2014-01-28 16:26:00,62.9,17.4,29.95,WNW,290,2.0,5.0,17,0.00,,,0.00,WUHU216DAVISVP2,2014-01-28 23:26:00,
2014-01-28 16:32:00,62.9,17.4,29.95,West,280,2.0,3.0,17,0.00,,,0.00,WUHU216DAVISVP2,2014-01-28 23:32:00,
2014-01-28 16:37:00,63.2,17.6,29.95,WSW,252,2.0,3.0,17,0.00,,,0.00,WUHU216DAVISVP2,2014-01-28 23:37:00,
2014-01-28 16:42:00,63.0,17.4,29.96,SSW,210,1.0,4.0,17,0.00,,,0.00,WUHU216DAVISVP2,2014-01-28 23:42:00,
2014-01-28 16:47:00,62.9,17.4,29.95,NNW,338,1.0,3.0,17,0.00,,,0.00,WUHU216DAVISVP2,2014-01-28 23:47:00,
2014-01-28 16:52:00,63.1,17.5,29.96,WNW,300,2.0,5.0,17,0.00,,,0.00,WUHU216DAVISVP2,2014-01-28 23:52:00,
2014-01-28 16:57:00,63.0,17.4,29.96,NW,313,2.0,4.0,17,0.00,,,0.00,WUHU216DAVISVP2,2014-01-28 23:57:00,
2014-01-28 17:02:00,62.9,17.4,29.96,NW,306,2.0,4.0,17,0.00,,,0.00,WUHU216DAVISVP2,2014-01-29 00:02:00,
2014-01-28 17:07:00,62.9,17.4,29.96,WSW,241,2.0,4.0,17,0.00,,,0.00,WUHU216DAVISVP2,2014-01-29 00:07:00,
2014-01-28 17:12:00,62.7,15.8,29.97,West,276,2.0,4.0,16,0.00,,,0.00,WUHU216DAVISVP2,2014-01-29 00:12:00,
2014-01-28 17:17:00,62.1,15.3,29.97,WNW,293,3.0,6.0,16,0.00,,,0.00,WUHU216DAVISVP2,2014-01-29 00:17:00,
2014-01-28 17:22:00,61.5,16.2,29.98,NW,315,1.0,2.0,17,0.00,,,0.00,WUHU216DAVISVP2,2014-01-29 00:22:00,
2014-01-28 17:28:00,60.8,15.6,29.98,NW,312,1.0,2.0,17,0.00,,,0.00,WUHU216DAVISVP2,2014-01-29 00:28:00,
2014-01-28 17:33:00,59.5,14.6,29.98,NW,314,2.0,4.0,17,0.00,,,0.00,WUHU216DAVISVP2,2014-01-29 00:33:00,
2014-01-28 17:38:00,58.6,13.8,29.98,NW,312,3.0,7.0,17,0.00,,,0.00,WUHU216DAVISVP2,2014-01-29 00:38:00,
2014-01-28 17:43:00,57.8,13.2,29.98,NW,312,3.0,6.0,17,0.00,,,0.00,WUHU216DAVISVP2,2014-01-29 00:43:00,
2014-01-28 17:48:00,57.3,12.8,29.98,NW,310,3.0,6.0,17,0.00,,,0.00,WUHU216DAVISVP2,2014-01-29 00:48:00,
2014-01-28 17:53:00,56.4,12.1,29.99,NW,321,2.0,3.0,17,0.00,,,0.00,WUHU216DAVISVP2,2014-01-29 00:53:00,
2014-01-28 17:58:00,55.3,12.4,29.99,NW,320,2.0,3.0,18,0.00,,,0.00,WUHU216DAVISVP2,2014-01-29 00:58:00,
2014-01-28 18:03:00,54.6,11.9,29.98,NW,321,1.0,2.0,18,0.00,,,0.00,WUHU216DAVISVP2,2014-01-29 01:03:00,
2014-01-28 18:08:00,53.9,12.5,29.99,NW,314,1.0,3.0,19,0.00,,,0.00,WUHU216DAVISVP2,2014-01-29 01:08:00,
2014-01-28 18:13:00,53.8,12.4,29.99,NW,309,3.0,5.0,19,0.00,,,0.00,WUHU216DAVISVP2,2014-01-29 01:13:00,
2014-01-28 18:18:00,53.9,11.3,29.99,NW,308,3.0,6.0,18,0.00,,,0.00,WUHU216DAVISVP2,2014-01-29 01:18:00,
2014-01-28 18:23:00,53.9,11.3,29.99,NW,311,2.0,4.0,18,0.00,,,0.00,WUHU216DAVISVP2,2014-01-29 01:23:00,
2014-01-28 18:28:00,53.9,12.5,29.99,WNW,297,4.0,7.0,19,0.00,,,0.00,WUHU216DAVISVP2,2014-01-29 01:28:00,
2014-01-28 18:34:00,54.3,11.6,29.99,WNW,301,4.0,7.0,18,0.00,,,0.00,WUHU216DAVISVP2,2014-01-29 01:34:00,
2014-01-28 18:39:00,54.4,12.9,29.99,WNW,300,4.0,8.0,19,0.00,,,0.00,WUHU216DAVISVP2,2014-01-29 01:39:00,
2014-01-28 18:44:00,54.1,13.8,29.99,NNW,329,2.0,5.0,20,0.00,,,0.00,WUHU216DAVISVP2,2014-01-29 01:44:00,
2014-01-28 18:49:00,53.4,13.2,29.99,NW,326,1.0,2.0,20,0.00,,,0.00,WUHU216DAVISVP2,2014-01-29 01:49:00,
2014-01-28 18:54:00,52.6,13.7,29.99,NW,323,1.0,2.0,21,0.00,,,0.00,WUHU216DAVISVP2,2014-01-29 01:54:00,
2014-01-28 18:59:00,51.7,12.9,30.00,NW,324,1.0,3.0,21,0.00,,,0.00,WUHU216DAVISVP2,2014-01-29 01:59:00,
2014-01-28 19:04:00,50.9,13.3,30.00,NNW,330,1.0,3.0,22,0.00,,,0.00,WUHU216DAVISVP2,2014-01-29 02:04:00,
2014-01-28 19:09:00,49.4,12.0,30.00,NNW,335,2.0,3.0,22,0.00,,,0.00,WUHU216DAVISVP2,2014-01-29 02:09:00,
2014-01-28 19:14:00,47.8,12.6,30.00,NNW,342,2.0,3.0,24,0.00,,,0.00,WUHU216DAVISVP2,2014-01-29 02:14:00,
2014-01-28 19:19:00,46.5,13.3,30.00,NNW,342,1.0,2.0,26,0.00,,,0.00,WUHU216DAVISVP2,2014-01-29 02:19:00,
2014-01-28 19:24:00,46.6,14.2,30.00,North,0,0.0,0.0,27,0.00,,,0.00,WUHU216DAVISVP2,2014-01-29 02:24:00,
2014-01-28 19:29:00,47.6,15.1,30.01,NW,304,3.0,5.0,27,0.00,,,0.00,WUHU216DAVISVP2,2014-01-29 02:29:00,
2014-01-28 19:34:00,50.5,14.9,30.01,WNW,294,6.0,9.0,24,0.00,,,0.00,WUHU216DAVISVP2,2014-01-29 02:34:00,
2014-01-28 19:40:00,52.3,16.4,30.01,WNW,293,7.0,9.0,24,0.00,,,0.00,WUHU216DAVISVP2,2014-01-29 02:40:00,
2014-01-28 19:45:00,52.4,16.5,30.01,NW,312,3.0,7.0,24,0.00,,,0.00,WUHU216DAVISVP2,2014-01-29 02:45:00,
2014-01-28 19:50:00,51.9,17.1,30.01,NW,315,4.0,6.0,25,0.00,,,0.00,Wunderground v.1.15,2014-01-29 02:50:00,
2014-01-28 19:55:00,51.7,15.9,30.01,NW,307,5.0,8.0,24,0.00,,,0.00,WUHU216DAVISVP2,2014-01-29 02:55:00,
2014-01-28 20:00:00,52.1,15.3,30.01,NW,306,5.0,8.0,23,0.00,,,0.00,WUHU216DAVISVP2,2014-01-29 03:00:00,
2014-01-28 20:05:00,52.1,14.3,30.02,NW,312,3.0,6.0,22,0.00,,,0.00,WUHU216DAVISVP2,2014-01-29 03:05:00,
2014-01-28 20:10:00,52.1,15.3,30.02,NW,313,2.0,5.0,23,0.00,,,0.00,WUHU216DAVISVP2,2014-01-29 03:10:00,
2014-01-28 20:15:00,51.1,14.4,30.02,NW,317,2.0,4.0,23,0.00,,,0.00,WUHU216DAVISVP2,2014-01-29 03:15:00,
2014-01-28 20:21:00,51.3,14.6,30.02,NW,308,2.0,4.0,23,0.00,,,0.00,WUHU216DAVISVP2,2014-01-29 03:21:00,
2014-01-28 20:26:00,51.5,13.8,30.02,NW,310,2.0,4.0,22,0.00,,,0.00,WUHU216DAVISVP2,2014-01-29 03:26:00,
2014-01-28 20:31:00,51.4,13.7,30.02,NW,309,2.0,3.0,22,0.00,,,0.00,WUHU216DAVISVP2,2014-01-29 03:31:00,
2014-01-28 20:36:00,49.8,13.3,30.02,NW,320,2.0,3.0,23,0.00,,,0.00,WUHU216DAVISVP2,2014-01-29 03:36:00,
2014-01-28 20:41:00,47.0,12.8,30.02,NNW,333,2.0,3.0,25,0.00,,,0.00,WUHU216DAVISVP2,2014-01-29 03:41:00,
2014-01-28 20:46:00,46.9,13.6,30.02,NW,315,1.0,3.0,26,0.00,,,0.00,WUHU216DAVISVP2,2014-01-29 03:46:00,
2014-01-28 20:51:00,45.7,11.7,30.02,North,349,3.0,5.0,25,0.00,,,0.00,WUHU216DAVISVP2,2014-01-29 03:51:00,
2014-01-28 20:56:00,43.6,11.6,30.02,North,0,2.0,4.0,27,0.00,,,0.00,WUHU216DAVISVP2,2014-01-29 03:56:00,
2014-01-28 21:01:00,42.0,11.8,30.03,North,351,3.0,4.0,29,0.00,,,0.00,WUHU216DAVISVP2,2014-01-29 04:01:00,
2014-01-28 21:06:00,41.9,11.7,30.03,NNW,332,2.0,5.0,29,0.00,,,0.00,WUHU216DAVISVP2,2014-01-29 04:06:00,
2014-01-28 21:12:00,41.8,11.6,30.03,NNW,347,3.0,4.0,29,0.00,,,0.00,WUHU216DAVISVP2,2014-01-29 04:12:00,
2014-01-28 21:17:00,41.1,11.8,30.04,North,351,2.0,4.0,30,0.00,,,0.00,WUHU216DAVISVP2,2014-01-29 04:17:00,
2014-01-28 21:22:00,41.7,13.0,30.04,NW,324,2.0,4.0,31,0.00,,,0.00,WUHU216DAVISVP2,2014-01-29 04:22:00,
2014-01-28 21:27:00,42.9,12.6,30.04,NNW,340,3.0,5.0,29,0.00,,,0.00,WUHU216DAVISVP2,2014-01-29 04:27:00,
2014-01-28 21:32:00,42.9,12.6,30.04,NNW,335,2.0,5.0,29,0.00,,,0.00,WUHU216DAVISVP2,2014-01-29 04:32:00,
2014-01-28 21:37:00,44.3,13.0,30.04,NW,320,2.0,4.0,28,0.00,,,0.00,WUHU216DAVISVP2,2014-01-29 04:37:00,
2014-01-28 21:42:00,47.0,13.7,30.04,WNW,300,2.0,4.0,26,0.00,,,0.00,WUHU216DAVISVP2,2014-01-29 04:42:00,
2014-01-28 21:47:00,48.5,13.2,30.04,WNW,302,2.0,3.0,24,0.00,,,0.00,WUHU216DAVISVP2,2014-01-29 04:47:00,
2014-01-28 21:52:00,49.2,12.8,30.04,WNW,301,2.0,4.0,23,0.00,,,0.00,WUHU216DAVISVP2,2014-01-29 04:52:00,
2014-01-28 21:57:00,50.1,13.6,30.05,WNW,295,3.0,5.0,23,0.00,,,0.00,WUHU216DAVISVP2,2014-01-29 04:57:00,
2014-01-28 22:02:00,51.0,13.4,30.05,WNW,293,4.0,8.0,22,0.00,,,0.00,WUHU216DAVISVP2,2014-01-29 05:02:00,
2014-01-28 22:07:00,51.2,13.5,30.05,WNW,287,4.0,7.0,22,0.00,,,0.00,WUHU216DAVISVP2,2014-01-29 05:07:00,
2014-01-28 22:13:00,51.4,13.7,30.05,WNW,288,4.0,8.0,22,0.00,,,0.00,WUHU216DAVISVP2,2014-01-29 05:13:00,
2014-01-28 22:18:00,51.4,13.7,30.05,WNW,291,4.0,7.0,22,0.00,,,0.00,WUHU216DAVISVP2,2014-01-29 05:18:00,
2014-01-28 22:20:00,51.9,14.2,30.05,WNW,282,5.0,5.0,22,0.00,,,0.00,Wunderground v.1.15,2014-01-29 05:20:00,
2014-01-28 22:28:00,51.1,13.4,30.05,WNW,296,5.0,8.0,22,0.00,,,0.00,WUHU216DAVISVP2,2014-01-29 05:28:00,
2014-01-28 22:30:00,51.5,13.8,30.05,WNW,288,5.0,5.0,22,0.00,,,0.00,Wunderground v.1.15,2014-01-29 05:30:00,
2014-01-28 22:33:00,51.0,13.4,30.05,WNW,297,5.0,8.0,22,0.00,,,0.00,WUHU216DAVISVP2,2014-01-29 05:33:00,
2014-01-28 22:38:00,50.8,13.2,30.05,WNW,299,5.0,8.0,22,0.00,,,0.00,WUHU216DAVISVP2,2014-01-29 05:38:00,
2014-01-28 22:43:00,51.0,13.4,30.05,WNW,299,6.0,9.0,22,0.00,,,0.00,WUHU216DAVISVP2,2014-01-29 05:43:00,
2014-01-28 22:48:00,51.4,13.7,30.05,WNW,298,6.0,9.0,22,0.00,,,0.00,WUHU216DAVISVP2,2014-01-29 05:48:00,
2014-01-28 22:53:00,51.4,13.7,30.05,WNW,297,7.0,10.0,22,0.00,,,0.00,WUHU216DAVISVP2,2014-01-29 05:53:00,
2014-01-28 22:58:00,51.2,13.5,30.05,NW,309,5.0,10.0,22,0.00,,,0.00,WUHU216DAVISVP2,2014-01-29 05:58:00,
2014-01-28 23:03:00,50.8,14.2,30.05,NW,312,5.0,9.0,23,0.00,,,0.00,WUHU216DAVISVP2,2014-01-29 06:03:00,
2014-01-28 23:08:00,50.5,13.9,30.04,NW,318,5.0,9.0,23,0.00,,,0.00,WUHU216DAVISVP2,2014-01-29 06:08:00,
2014-01-28 23:13:00,50.3,13.8,30.04,NW,316,5.0,8.0,23,0.00,,,0.00,WUHU216DAVISVP2,2014-01-29 06:13:00,
2014-01-28 23:19:00,50.0,13.5,30.04,NW,321,4.0,7.0,23,0.00,,,0.00,WUHU216DAVISVP2,2014-01-29 06:19:00,
2014-01-28 23:24:00,49.8,13.3,30.04,NW,321,4.0,6.0,23,0.00,,,0.00,WUHU216DAVISVP2,2014-01-29 06:24:00,
2014-01-28 23:29:00,49.7,14.2,30.03,NW,320,4.0,7.0,24,0.00,,,0.00,WUHU216DAVISVP2,2014-01-29 06:29:00,
2014-01-28 23:34:00,49.8,14.3,30.03,NW,319,5.0,8.0,24,0.00,,,0.00,WUHU216DAVISVP2,2014-01-29 06:34:00,
2014-01-28 23:39:00,49.9,14.4,30.03,NW,320,4.0,7.0,24,0.00,,,0.00,WUHU216DAVISVP2,2014-01-29 06:39:00,
2014-01-28 23:44:00,49.8,14.3,30.03,NW,317,2.0,7.0,24,0.00,,,0.00,WUHU216DAVISVP2,2014-01-29 06:44:00,
2014-01-28 23:49:00,49.8,14.3,30.03,NW,310,2.0,4.0,24,0.00,,,0.00,WUHU216DAVISVP2,2014-01-29 06:49:00,
2014-01-28 23:54:00,48.4,13.1,30.03,ESE,123,2.0,4.0,24,0.00,,,0.00,WUHU216DAVISVP2,2014-01-29 06:54:00,
2014-01-28 23:59:00,45.9,12.7,30.04,SE,136,2.0,3.0,26,0.00,,,0.00,WUHU216DAVISVP2,2014-01-29 06:59:00,